| time (UTC) | temp C | wind direction | speed KPH | gust KPH | rain 1hr cm | rain 24hr cm | rain mn cm | humidity % | barometer mb |
| 20260905191012 | 35 | 286 | 3.2 | 19.3 | 0.00 | 0.00 | 0.00 | 62 | 1013.5 |
| 20260905190515 | 35 | 241 | 6.4 | 19.3 | 0.00 | 0.00 | 0.00 | 58 | 1013.6 |
| 20260905190045 | 35 | 208 | 8.0 | 19.3 | 0.00 | 0.00 | 0.00 | 63 | 1013.7 |
| 20260905185515 | 35 | 203 | 8.0 | 19.3 | 0.00 | 0.00 | 0.00 | 64 | 1013.8 |
| 20260905185015 | 35 | 218 | 6.4 | 17.7 | 0.00 | 0.00 | 0.00 | 63 | 1013.7 |
| 20260905184541 | 35 | 232 | 6.4 | 17.7 | 0.00 | 0.00 | 0.00 | 63 | 1013.7 |
| 20260905184011 | 35 | 266 | 9.7 | 17.7 | 0.00 | 0.00 | 0.00 | 60 | 1013.8 |
| 20260905183513 | 35 | 252 | 9.7 | 22.5 | 0.00 | 0.00 | 0.00 | 61 | 1013.8 |
| 20260905183031 | 35 | 282 | 4.8 | 22.5 | 0.00 | 0.00 | 0.00 | 60 | 1013.9 |
| 20260905182502 | 35 | 229 | 3.2 | 17.7 | 0.00 | 0.00 | 0.00 | 62 | 1014.0 |
| 20260905182002 | 35 | 269 | 3.2 | 17.7 | 0.00 | 0.00 | 0.00 | 64 | 1014.1 |
| 20260905181508 | 35 | 232 | 9.7 | 17.7 | 0.00 | 0.00 | 0.00 | 64 | 1014.1 |
| 20260905181004 | 35 | 228 | 6.4 | 17.7 | 0.00 | 0.00 | 0.00 | 61 | 1014.1 |
| 20260905180504 | 35 | 222 | 1.6 | 12.9 | 0.00 | 0.00 | 0.00 | 64 | 1014.1 |
| 20260905180009 | 35 | 234 | 4.8 | 20.9 | 0.00 | 0.00 | 0.00 | 62 | 1014.2 |
| 20260905175504 | 35 | 207 | 8.0 | 20.9 | 0.00 | 0.00 | 0.00 | 62 | 1014.2 |
| 20260905175010 | 35 | 264 | 4.8 | 17.7 | 0.00 | 0.00 | 0.00 | 63 | 1014.3 |
| 20260905174525 | 35 | 262 | 8.0 | 17.7 | 0.00 | 0.00 | 0.00 | 62 | 1014.4 |
| 20260905174002 | 35 | 219 | 3.2 | 17.7 | 0.00 | 0.00 | 0.00 | 68 | 1014.4 |
| 20260905173506 | 34 | 250 | 6.4 | 16.1 | 0.00 | 0.00 | 0.00 | 66 | 1014.4 |
| 20260905173022 | 34 | 235 | 1.6 | 16.1 | 0.00 | 0.00 | 0.00 | 65 | 1014.6 |
| 20260905172510 | 34 | 259 | 0.0 | 16.1 | 0.00 | 0.00 | 0.00 | 66 | 1014.7 |
| 20260905172003 | 34 | 236 | 4.8 | 14.5 | 0.00 | 0.00 | 0.00 | 65 | 1014.8 |
| 20260905171503 | 34 | 226 | 0.0 | 16.1 | 0.00 | 0.00 | 0.00 | 64 | 1014.8 |
| 20260905171002 | 34 | 229 | 8.0 | 16.1 | 0.00 | 0.00 | 0.00 | 66 | 1014.9 |
| 20260905170505 | 34 | 240 | 3.2 | 17.7 | 0.00 | 0.00 | 0.00 | 64 | 1015.0 |
| 20260905170011 | 34 | 238 | 0.0 | 17.7 | 0.00 | 0.00 | 0.00 | 65 | 1015.1 |
| 20260905165504 | 34 | 258 | 4.8 | 14.5 | 0.00 | 0.00 | 0.00 | 70 | 1015.2 |
| 20260905165006 | 34 | 176 | 4.8 | 11.3 | 0.00 | 0.00 | 0.00 | 68 | 1015.3 |
| 20260905164513 | 34 | 214 | 0.0 | 17.7 | 0.00 | 0.00 | 0.00 | 68 | 1015.4 |
| 20260905164006 | 33 | 240 | 4.8 | 17.7 | 0.00 | 0.00 | 0.00 | 71 | 1015.6 |
| 20260905163509 | 33 | 232 | 3.2 | 14.5 | 0.00 | 0.00 | 0.00 | 71 | 1015.6 |
| 20260905163008 | 33 | 248 | 3.2 | 11.3 | 0.00 | 0.00 | 0.00 | 70 | 1015.6 |
| 20260905162510 | 33 | 241 | 1.6 | 9.7 | 0.00 | 0.00 | 0.00 | 69 | 1015.7 |
| 20260905162010 | 33 | 217 | 1.6 | 9.7 | 0.00 | 0.00 | 0.00 | 70 | 1015.7 |
| 20260905161527 | 33 | 267 | 1.6 | 9.7 | 0.00 | 0.00 | 0.00 | 71 | 1015.8 |
| 20260905161007 | 33 | 237 | 1.6 | 9.7 | 0.00 | 0.00 | 0.00 | 71 | 1015.8 |
| 20260905160511 | 33 | 214 | 1.6 | 9.7 | 0.00 | 0.00 | 0.00 | 72 | 1015.8 |
| 20260905160015 | 33 | 227 | 1.6 | 8.0 | 0.00 | 0.00 | 0.00 | 73 | 1015.9 |
| 20260905155504 | 33 | 213 | 0.0 | 8.0 | 0.00 | 0.00 | 0.00 | 72 | 1016.0 |
| 20260905155003 | 32 | 207 | 0.0 | 6.4 | 0.00 | 0.00 | 0.00 | 73 | 1016.0 |
| 20260905154513 | 32 | 261 | 0.0 | 8.0 | 0.00 | 0.00 | 0.00 | 77 | 1016.1 |
| 20260905154006 | 32 | 235 | 0.0 | 8.0 | 0.00 | 0.00 | 0.00 | 74 | 1016.3 |
| 20260905153504 | 32 | 198 | 1.6 | 11.3 | 0.00 | 0.00 | 0.00 | 77 | 1016.2 |
| 20260905153022 | 32 | 269 | 1.6 | 11.3 | 0.00 | 0.00 | 0.00 | 76 | 1016.2 |
| 20260905152508 | 32 | 243 | 0.0 | 9.7 | 0.00 | 0.00 | 0.00 | 78 | 1016.1 |
| 20260905152012 | 32 | 226 | 1.6 | 9.7 | 0.00 | 0.00 | 0.00 | 78 | 1016.2 |
| 20260905151515 | 31 | 191 | 0.0 | 8.0 | 0.00 | 0.00 | 0.00 | 80 | 1016.1 |
| 20260905151009 | 31 | 253 | 0.0 | 9.7 | 0.00 | 0.00 | 0.00 | 77 | 1016.2 |
| 20260905150513 | 31 | 236 | 0.0 | 9.7 | 0.00 | 0.00 | 0.00 | 80 | 1016.2 |
| 20260905150009 | 31 | 264 | 0.0 | 3.2 | 0.00 | 0.00 | 0.00 | 82 | 1016.2 |
| 20260905145508 | 31 | 240 | 0.0 | 3.2 | 0.00 | 0.00 | 0.00 | 82 | 1016.0 |
| 20260905145011 | 30 | 177 | 0.0 | 4.8 | 0.00 | 0.00 | 0.00 | 83 | 1016.0 |
| 20260905144516 | 30 | 230 | 0.0 | 4.8 | 0.00 | 0.00 | 0.00 | 83 | 1016.0 |
| 20260905144006 | 30 | 206 | 0.0 | 4.8 | 0.00 | 0.00 | 0.00 | 85 | 1016.1 |
| 20260905143510 | 30 | 214 | 0.0 | 6.4 | 0.00 | 0.00 | 0.00 | 85 | 1016.1 |
| 20260905143015 | 29 | 234 | 0.0 | 6.4 | 0.00 | 0.00 | 0.00 | 84 | 1016.1 |
| 20260905142503 | 29 | 257 | 0.0 | 9.7 | 0.00 | 0.00 | 0.00 | 85 | 1016.0 |
| 20260905142009 | 29 | 196 | 1.6 | 9.7 | 0.00 | 0.00 | 0.00 | 86 | 1015.9 |
| 20260905141526 | 29 | 225 | 0.0 | 8.0 | 0.00 | 0.00 | 0.00 | 88 | 1016.0 |
| 20260905141010 | 28 | 299 | 0.0 | 8.0 | 0.00 | 0.00 | 0.00 | 87 | 1016.0 |
| 20260905140504 | 28 | 229 | 1.6 | 8.0 | 0.00 | 0.00 | 0.00 | 89 | 1016.0 |
| 20260905140024 | 28 | 232 | 0.0 | 4.8 | 0.00 | 0.00 | 0.00 | 90 | 1016.1 |
| 20260905135513 | 28 | 219 | 0.0 | 4.8 | 0.00 | 0.00 | 0.00 | 91 | 1016.1 |
| 20260905135006 | 28 | 227 | 0.0 | 3.2 | 0.00 | 0.00 | 0.00 | 92 | 1016.0 |
| 20260905134517 | 27 | 145 | 0.0 | 3.2 | 0.00 | 0.00 | 0.00 | 92 | 1016.0 |
| 20260905134015 | 27 | 209 | 0.0 | 3.2 | 0.00 | 0.00 | 0.00 | 92 | 1016.0 |
| 20260905133503 | 27 | 205 | 0.0 | 6.4 | 0.00 | 0.00 | 0.00 | 93 | 1016.1 |
| 20260905133015 | 27 | 232 | 0.0 | 6.4 | 0.00 | 0.00 | 0.00 | 94 | 1016.0 |
| 20260905132504 | 26 | 231 | 0.0 | 6.4 | 0.00 | 0.00 | 0.00 | 95 | 1016.0 |
| 20260905132010 | 26 | 195 | 0.0 | 1.6 | 0.00 | 0.00 | 0.00 | 95 | 1016.0 |
| 20260905131520 | 26 | 165 | 0.0 | 0.0 | 0.00 | 0.00 | 0.00 | 95 | 1015.9 |
| 20260905131006 | 26 | 175 | 0.0 | 0.0 | 0.00 | 0.00 | 0.00 | 95 | 1016.0 |
| 20260905130514 | 26 | 16 | 0.0 | 0.0 | 0.00 | 0.00 | 0.00 | 95 | 1016.0 |
| 20260905130028 | 26 | 5 | 0.0 | 0.0 | 0.00 | 0.00 | 0.00 | 95 | 1016.1 |
| 20260905125508 | 25 | 5 | 0.0 | 0.0 | 0.00 | 0.00 | 0.00 | 95 | 1016.1 |
| 20260905125016 | 25 | 5 | 0.0 | 0.0 | 0.00 | 0.00 | 0.00 | 95 | 1016.0 |
| 20260905124528 | 25 | 5 | 0.0 | 0.0 | 0.00 | 0.00 | 0.00 | 95 | 1016.1 |
| 20260905124014 | 25 | 5 | 0.0 | 0.0 | 0.00 | 0.00 | 0.00 | 95 | 1016.1 |
| 20260905123507 | 25 | 211 | 0.0 | 0.0 | 0.00 | 0.00 | 0.00 | 95 | 1016.1 |
| 20260905123028 | 25 | 213 | 0.0 | 0.0 | 0.00 | 0.00 | 0.00 | 95 | 1015.9 |
| 20260905122516 | 25 | 213 | 0.0 | 0.0 | 0.00 | 0.00 | 0.00 | 95 | 1016.0 |
| 20260905122008 | 25 | 213 | 0.0 | 0.0 | 0.00 | 0.00 | 0.00 | 95 | 1015.9 |
| 20260905121516 | 25 | 213 | 0.0 | 0.0 | 0.00 | 0.00 | 0.00 | 95 | 1015.7 |
| 20260905121008 | 24 | 182 | 0.0 | 0.0 | 0.00 | 0.00 | 0.00 | 95 | 1015.7 |
| 20260905120510 | 24 | 181 | 0.0 | 0.0 | 0.00 | 0.00 | 0.00 | 95 | 1015.7 |
| 20260905120021 | 24 | 181 | 0.0 | 0.0 | 0.00 | 0.00 | 0.00 | 95 | 1015.7 |
| 20260905115511 | 23 | 179 | 0.0 | 0.0 | 0.00 | 0.00 | 0.00 | 95 | 1015.6 |
| 20260905115011 | 23 | 179 | 0.0 | 0.0 | 0.00 | 0.00 | 0.00 | 94 | 1015.6 |
| 20260905114517 | 23 | 178 | 0.0 | 0.0 | 0.00 | 0.00 | 0.00 | 94 | 1015.6 |
| 20260905114008 | 23 | 178 | 0.0 | 0.0 | 0.00 | 0.00 | 0.00 | 94 | 1015.4 |
| 20260905113514 | 23 | 178 | 0.0 | 0.0 | 0.00 | 0.00 | 0.00 | 94 | 1015.4 |
| 20260905113031 | 23 | 178 | 0.0 | 0.0 | 0.00 | 0.00 | 0.00 | 94 | 1015.4 |
| 20260905112510 | 23 | 178 | 0.0 | 0.0 | 0.00 | 0.00 | 0.00 | 94 | 1015.4 |
| 20260905112014 | 23 | 178 | 0.0 | 0.0 | 0.00 | 0.00 | 0.00 | 94 | 1015.5 |
| 20260905111539 | 23 | 178 | 0.0 | 0.0 | 0.00 | 0.00 | 0.00 | 94 | 1015.4 |
| 20260905111008 | 23 | 178 | 0.0 | 0.0 | 0.00 | 0.00 | 0.00 | 94 | 1015.4 |
| 20260905110507 | 23 | 178 | 0.0 | 0.0 | 0.00 | 0.00 | 0.00 | 94 | 1015.4 |
| 20260905110023 | 23 | 178 | 0.0 | 0.0 | 0.00 | 0.00 | 0.00 | 93 | 1015.4 |
| 20260905105511 | 23 | 178 | 0.0 | 0.0 | 0.00 | 0.00 | 0.00 | 93 | 1015.3 |
| 20260905105010 | 23 | 178 | 0.0 | 0.0 | 0.00 | 0.00 | 0.00 | 93 | 1015.2 |
| 20260905104534 | 23 | 178 | 0.0 | 0.0 | 0.00 | 0.00 | 0.00 | 93 | 1015.2 |
| 20260905104010 | 23 | 178 | 0.0 | 0.0 | 0.00 | 0.00 | 0.00 | 93 | 1015.1 |
| 20260905103512 | 23 | 178 | 0.0 | 0.0 | 0.00 | 0.00 | 0.00 | 93 | 1015.1 |
| 20260905103025 | 23 | 178 | 0.0 | 0.0 | 0.00 | 0.00 | 0.00 | 93 | 1015.2 |
| 20260905102514 | 23 | 178 | 0.0 | 0.0 | 0.00 | 0.00 | 0.00 | 93 | 1015.2 |
| 20260905102015 | 23 | 178 | 0.0 | 0.0 | 0.00 | 0.00 | 0.00 | 93 | 1015.2 |
| 20260905101524 | 23 | 178 | 0.0 | 0.0 | 0.00 | 0.00 | 0.00 | 93 | 1015.2 |
| 20260905101013 | 23 | 178 | 0.0 | 0.0 | 0.00 | 0.00 | 0.00 | 93 | 1015.2 |
| 20260905100515 | 23 | 178 | 0.0 | 0.0 | 0.00 | 0.00 | 0.00 | 93 | 1015.1 |
| 20260905100033 | 23 | 178 | 0.0 | 0.0 | 0.00 | 0.00 | 0.00 | 93 | 1015.2 |
| 20260905095507 | 23 | 178 | 0.0 | 0.0 | 0.00 | 0.00 | 0.00 | 93 | 1015.1 |
| 20260905095009 | 23 | 179 | 0.0 | 0.0 | 0.00 | 0.00 | 0.00 | 93 | 1015.0 |
| 20260905094527 | 23 | 178 | 0.0 | 0.0 | 0.00 | 0.00 | 0.00 | 93 | 1015.0 |
| 20260905094008 | 23 | 178 | 0.0 | 0.0 | 0.00 | 0.00 | 0.00 | 93 | 1014.9 |
| 20260905093512 | 23 | 179 | 0.0 | 0.0 | 0.00 | 0.00 | 0.00 | 93 | 1015.0 |
| 20260905093030 | 23 | 178 | 0.0 | 0.0 | 0.00 | 0.00 | 0.00 | 93 | 1015.0 |
| 20260905092502 | 23 | 178 | 0.0 | 0.0 | 0.00 | 0.00 | 0.00 | 93 | 1015.0 |
| 20260905092004 | 23 | 178 | 0.0 | 0.0 | 0.00 | 0.00 | 0.00 | 93 | 1015.0 |
| 20260905091507 | 23 | 178 | 0.0 | 0.0 | 0.00 | 0.00 | 0.00 | 93 | 1014.9 |
| 20260905091007 | 23 | 178 | 0.0 | 0.0 | 0.00 | 0.00 | 0.00 | 93 | 1014.8 |
| 20260905090507 | 23 | 178 | 0.0 | 0.0 | 0.00 | 0.00 | 0.00 | 93 | 1014.9 |
| 20260905090003 | 23 | 178 | 0.0 | 0.0 | 0.00 | 0.00 | 0.00 | 93 | 1014.9 |
| 20260905085504 | 23 | 178 | 0.0 | 0.0 | 0.00 | 0.00 | 0.00 | 93 | 1014.8 |
| 20260905085008 | 23 | 178 | 0.0 | 0.0 | 0.00 | 0.00 | 0.00 | 93 | 1014.7 |
| 20260905084526 | 23 | 178 | 0.0 | 0.0 | 0.00 | 0.00 | 0.00 | 93 | 1014.9 |
| 20260905084004 | 23 | 178 | 0.0 | 0.0 | 0.00 | 0.00 | 0.00 | 93 | 1015.0 |
| 20260905083505 | 23 | 178 | 0.0 | 0.0 | 0.00 | 0.00 | 0.00 | 93 | 1014.9 |
| 20260905083004 | 23 | 178 | 0.0 | 0.0 | 0.00 | 0.00 | 0.00 | 93 | 1014.9 |
| 20260905082502 | 23 | 178 | 0.0 | 0.0 | 0.00 | 0.00 | 0.00 | 93 | 1014.9 |
| 20260905082004 | 23 | 179 | 0.0 | 0.0 | 0.00 | 0.00 | 0.00 | 93 | 1015.0 |
| 20260905081508 | 23 | 179 | 0.0 | 0.0 | 0.00 | 0.00 | 0.00 | 93 | 1015.0 |
| 20260905081003 | 24 | 182 | 0.0 | 0.0 | 0.00 | 0.00 | 0.00 | 92 | 1015.0 |
| 20260905080504 | 24 | 182 | 0.0 | 0.0 | 0.00 | 0.00 | 0.00 | 92 | 1014.9 |
| 20260905080013 | 24 | 182 | 0.0 | 0.0 | 0.00 | 0.00 | 0.00 | 92 | 1014.9 |
| 20260905075508 | 24 | 182 | 0.0 | 0.0 | 0.00 | 0.00 | 0.00 | 92 | 1014.8 |
| 20260905075006 | 24 | 182 | 0.0 | 0.0 | 0.00 | 0.00 | 0.00 | 93 | 1015.0 |
| 20260905074511 | 24 | 182 | 0.0 | 0.0 | 0.00 | 0.00 | 0.00 | 92 | 1015.0 |
| 20260905074006 | 24 | 182 | 0.0 | 0.0 | 0.00 | 0.00 | 0.00 | 92 | 1014.9 |
| 20260905073509 | 24 | 182 | 0.0 | 0.0 | 0.00 | 0.00 | 0.00 | 92 | 1014.8 |
| 20260905073009 | 24 | 182 | 0.0 | 0.0 | 0.00 | 0.00 | 0.00 | 92 | 1014.8 |
| 20260905072504 | 24 | 182 | 0.0 | 0.0 | 0.00 | 0.00 | 0.00 | 92 | 1014.8 |
| 20260905072011 | 24 | 182 | 0.0 | 0.0 | 0.00 | 0.00 | 0.00 | 92 | 1014.8 |
| 20260905071507 | 24 | 182 | 0.0 | 0.0 | 0.00 | 0.00 | 0.00 | 92 | 1014.7 |
| 20260905071006 | 24 | 182 | 0.0 | 0.0 | 0.00 | 0.00 | 0.00 | 92 | 1014.7 |
| 20260905070503 | 24 | 182 | 0.0 | 0.0 | 0.00 | 0.00 | 0.00 | 92 | 1014.9 |
| 20260905070014 | 24 | 182 | 0.0 | 0.0 | 0.00 | 0.00 | 0.00 | 92 | 1014.9 |
| 20260905065503 | 24 | 182 | 0.0 | 0.0 | 0.00 | 0.00 | 0.00 | 92 | 1014.9 |
| 20260905065004 | 24 | 182 | 0.0 | 0.0 | 0.00 | 0.00 | 0.00 | 92 | 1014.9 |
| 20260905064517 | 24 | 182 | 0.0 | 0.0 | 0.00 | 0.00 | 0.00 | 91 | 1015.0 |
| 20260905064008 | 24 | 182 | 0.0 | 0.0 | 0.00 | 0.00 | 0.00 | 91 | 1015.1 |
| 20260905063508 | 24 | 182 | 0.0 | 0.0 | 0.00 | 0.00 | 0.00 | 91 | 1015.1 |
| 20260905063018 | 24 | 182 | 0.0 | 0.0 | 0.00 | 0.00 | 0.00 | 91 | 1015.1 |
| 20260905062511 | 24 | 182 | 0.0 | 0.0 | 0.00 | 0.00 | 0.00 | 91 | 1015.1 |
| 20260905062003 | 24 | 182 | 0.0 | 0.0 | 0.00 | 0.00 | 0.00 | 91 | 1015.0 |
| 20260905061516 | 25 | 182 | 0.0 | 0.0 | 0.00 | 0.00 | 0.00 | 91 | 1015.2 |
| 20260905061009 | 25 | 182 | 0.0 | 0.0 | 0.00 | 0.00 | 0.00 | 91 | 1015.2 |
| 20260905060503 | 25 | 182 | 0.0 | 0.0 | 0.00 | 0.00 | 0.00 | 91 | 1015.3 |
| 20260905060008 | 25 | 182 | 0.0 | 0.0 | 0.00 | 0.00 | 0.00 | 91 | 1015.4 |
| 20260905055502 | 25 | 175 | 0.0 | 0.0 | 0.00 | 0.00 | 0.00 | 1015.4 | |
| 20260905055004 | 25 | 175 | 0.0 | 0.0 | 0.00 | 0.00 | 0.00 | 91 | 1015.5 |
| 20260905054517 | 25 | 175 | 0.0 | 0.0 | 0.00 | 0.00 | 0.00 | 91 | 1015.6 |
| 20260905054009 | 25 | 175 | 0.0 | 0.0 | 0.00 | 0.00 | 0.00 | 90 | 1015.6 |
| 20260905053508 | 25 | 175 | 0.0 | 0.0 | 0.00 | 0.00 | 0.00 | 90 | 1015.6 |
| 20260905053020 | 25 | 175 | 0.0 | 0.0 | 0.00 | 0.00 | 0.00 | 90 | 1015.6 |
| 20260905052502 | 25 | 175 | 0.0 | 0.0 | 0.00 | 0.00 | 0.00 | 90 | 1015.7 |
| 20260905052008 | 25 | 175 | 0.0 | 0.0 | 0.00 | 0.00 | 0.00 | 90 | 1015.8 |
| 20260905051531 | 25 | 175 | 0.0 | 0.0 | 0.00 | 0.00 | 0.00 | 90 | 1015.8 |
| 20260905051013 | 25 | 175 | 0.0 | 0.0 | 0.00 | 0.00 | 0.00 | 90 | 1015.9 |
| 20260905050503 | 25 | 175 | 0.0 | 0.0 | 0.00 | 0.03 | 0.00 | 90 | 1015.9 |
| 20260905050022 | 25 | 175 | 0.0 | 0.0 | 0.00 | 0.03 | 0.00 | 90 | 1015.9 |
| 20260905045517 | 25 | 175 | 0.0 | 0.0 | 0.00 | 0.03 | 0.00 | 90 | 1016.1 |
| 20260905045003 | 25 | 175 | 0.0 | 0.0 | 0.00 | 0.03 | 0.00 | 90 | 1016.1 |
| 20260905044509 | 25 | 175 | 0.0 | 0.0 | 0.00 | 0.03 | 0.00 | 89 | 1016.1 |
| 20260905044006 | 25 | 175 | 0.0 | 0.0 | 0.00 | 0.03 | 0.00 | 89 | 1016.1 |
| 20260905043504 | 25 | 175 | 0.0 | 0.0 | 0.00 | 0.03 | 0.00 | 89 | 1016.1 |
| 20260905043014 | 25 | 175 | 0.0 | 0.0 | 0.00 | 0.03 | 0.00 | 89 | 1016.1 |
| 20260905042509 | 25 | 175 | 0.0 | 0.0 | 0.00 | 0.03 | 0.00 | 89 | 1016.1 |
| 20260905042007 | 25 | 175 | 0.0 | 0.0 | 0.00 | 0.03 | 0.00 | 88 | 1016.1 |
| 20260905041512 | 25 | 175 | 0.0 | 0.0 | 0.00 | 0.03 | 0.00 | 88 | 1016.1 |
| 20260905041006 | 25 | 175 | 0.0 | 0.0 | 0.00 | 0.03 | 0.00 | 88 | 1016.2 |
| 20260905040512 | 26 | 175 | 0.0 | 0.0 | 0.00 | 0.03 | 0.00 | 88 | 1016.2 |
| 20260905040034 | 26 | 175 | 0.0 | 0.0 | 0.00 | 0.03 | 0.00 | 89 | 1016.2 |
| 20260905035504 | 26 | 175 | 0.0 | 0.0 | 0.00 | 0.03 | 0.03 | 89 | 1016.2 |
| 20260905035008 | 26 | 175 | 0.0 | 0.0 | 0.00 | 0.03 | 0.03 | 88 | 1016.3 |
| 20260905034533 | 26 | 175 | 0.0 | 0.0 | 0.00 | 0.03 | 0.03 | 88 | 1016.3 |
| 20260905034013 | 26 | 176 | 0.0 | 0.0 | 0.00 | 0.03 | 0.03 | 88 | 1016.2 |
| 20260905033503 | 26 | 176 | 0.0 | 1.6 | 0.00 | 0.03 | 0.03 | 88 | 1016.4 |
| 20260905033016 | 26 | 197 | 0.0 | 1.6 | 0.00 | 0.03 | 0.03 | 88 | 1016.4 |
| 20260905032505 | 26 | 196 | 0.0 | 0.0 | 0.00 | 0.03 | 0.03 | 87 | 1016.4 |
| 20260905032005 | 26 | 197 | 0.0 | 0.0 | 0.00 | 0.03 | 0.03 | 87 | 1016.5 |
| 20260905031531 | 26 | 197 | 0.0 | 0.0 | 0.00 | 0.03 | 0.03 | 87 | 1016.5 |
| 20260905031011 | 26 | 197 | 0.0 | 0.0 | 0.00 | 0.03 | 0.03 | 86 | 1016.5 |
| 20260905030511 | 26 | 197 | 0.0 | 0.0 | 0.00 | 0.03 | 0.03 | 86 | 1016.6 |
| 20260905030021 | 26 | 197 | 0.0 | 0.0 | 0.00 | 0.03 | 0.03 | 86 | 1016.6 |
| 20260905025512 | 26 | 197 | 0.0 | 0.0 | 0.00 | 0.03 | 0.03 | 86 | 1016.6 |
| 20260905025014 | 26 | 197 | 0.0 | 0.0 | 0.00 | 0.03 | 0.03 | 85 | 1016.5 |
| 20260905024517 | 26 | 197 | 0.0 | 0.0 | 0.00 | 0.03 | 0.03 | 85 | 1016.5 |
| 20260905024007 | 26 | 197 | 0.0 | 0.0 | 0.00 | 0.03 | 0.03 | 86 | 1016.5 |
| 20260905023512 | 26 | 197 | 0.0 | 0.0 | 0.00 | 0.03 | 0.03 | 85 | 1016.4 |
| 20260905023034 | 27 | 197 | 0.0 | 0.0 | 0.00 | 0.03 | 0.03 | 85 | 1016.3 |
| 20260905022506 | 27 | 196 | 0.0 | 0.0 | 0.00 | 0.03 | 0.03 | 85 | 1016.3 |
| 20260905022010 | 27 | 197 | 0.0 | 0.0 | 0.00 | 0.03 | 0.03 | 85 | 1016.4 |
| 20260905021517 | 27 | 197 | 0.0 | 0.0 | 0.00 | 0.03 | 0.03 | 85 | 1016.3 |
| 20260905021007 | 27 | 197 | 0.0 | 0.0 | 0.00 | 0.03 | 0.03 | 84 | 1016.2 |
| 20260905020510 | 27 | 197 | 0.0 | 0.0 | 0.00 | 0.03 | 0.03 | 84 | 1016.3 |
| 20260905020030 | 27 | 197 | 0.0 | 0.0 | 0.00 | 0.03 | 0.03 | 83 | 1016.3 |
| 20260905015512 | 27 | 197 | 0.0 | 0.0 | 0.00 | 0.03 | 0.03 | 83 | 1016.2 |
| 20260905015008 | 27 | 197 | 0.0 | 0.0 | 0.00 | 0.03 | 0.03 | 82 | 1016.1 |
| 20260905014529 | 27 | 197 | 0.0 | 0.0 | 0.00 | 0.03 | 0.03 | 82 | 1016.1 |
| 20260905014014 | 27 | 197 | 0.0 | 0.0 | 0.00 | 0.03 | 0.03 | 81 | 1016.1 |
| 20260905013503 | 27 | 197 | 0.0 | 0.0 | 0.00 | 0.03 | 0.03 | 81 | 1016.0 |
| 20260905013023 | 27 | 197 | 0.0 | 0.0 | 0.00 | 0.03 | 0.03 | 80 | 1015.9 |
| 20260905012513 | 27 | 197 | 0.0 | 0.0 | 0.00 | 0.03 | 0.03 | 80 | 1016.0 |
| 20260905012015 | 27 | 197 | 0.0 | 0.0 | 0.00 | 0.03 | 0.03 | 80 | 1015.9 |
| 20260905011517 | 27 | 197 | 0.0 | 0.0 | 0.00 | 0.03 | 0.03 | 80 | 1015.9 |
| 20260905011004 | 27 | 177 | 0.0 | 0.0 | 0.00 | 0.03 | 0.03 | 80 | 1015.7 |
| 20260905010508 | 27 | 177 | 0.0 | 0.0 | 0.00 | 0.03 | 0.03 | 79 | 1015.8 |
| 20260905010013 | 28 | 177 | 0.0 | 0.0 | 0.00 | 0.03 | 0.03 | 79 | 1015.9 |
| 20260905005510 | 28 | 177 | 0.0 | 1.6 | 0.00 | 0.03 | 0.03 | 79 | 1015.8 |
| 20260905005012 | 28 | 153 | 0.0 | 6.4 | 0.00 | 0.03 | 0.03 | 79 | 1015.8 |
| 20260905004514 | 28 | 141 | 0.0 | 6.4 | 0.00 | 0.03 | 0.03 | 78 | 1016.0 |
| 20260905004007 | 28 | 111 | 0.0 | 4.8 | 0.00 | 0.03 | 0.03 | 78 | 1016.2 |
| 20260905003514 | 29 | 71 | 0.0 | 1.6 | 0.00 | 0.03 | 0.03 | 77 | 1016.4 |
| 20260905003015 | 29 | 32 | 0.0 | 0.0 | 0.00 | 0.03 | 0.03 | 76 | 1016.5 |
| 20260905002502 | 29 | 203 | 0.0 | 1.6 | 0.00 | 0.03 | 0.03 | 75 | 1016.5 |
| 20260905002004 | 30 | 202 | 0.0 | 3.2 | 0.00 | 0.03 | 0.03 | 75 | 1016.6 |
| 20260905001510 | 30 | 234 | 0.0 | 3.2 | 0.00 | 0.03 | 0.03 | 75 | 1016.5 |
| 20260905001004 | 30 | 208 | 0.0 | 3.2 | 0.00 | 0.03 | 0.03 | 76 | 1016.2 |
| 20260905000509 | 30 | 298 | 0.0 | 1.6 | 0.00 | 0.03 | 0.03 | 75 | 1016.1 |
| 20260905000026 | 30 | 292 | 0.0 | 1.6 | 0.00 | 0.03 | 0.03 | 74 | 1016.2 |
| 20260904235507 | 30 | 319 | 0.0 | 9.7 | 0.00 | 0.03 | 0.03 | 74 | 1016.1 |
| 20260904235004 | 30 | 290 | 0.0 | 9.7 | 0.00 | 0.03 | 0.03 | 73 | 1016.1 |
| 20260904234519 | 30 | 269 | 0.0 | 4.8 | 0.00 | 0.03 | 0.03 | 73 | 1015.8 |
| 20260904234012 | 30 | 280 | 0.0 | 3.2 | 0.00 | 0.03 | 0.03 | 73 | 1015.7 |
| 20260904233503 | 31 | 321 | 0.0 | 3.2 | 0.00 | 0.03 | 0.03 | 73 | 1015.4 |
| 20260904233016 | 31 | 245 | 0.0 | 4.8 | 0.00 | 0.03 | 0.03 | 73 | 1015.7 |
| 20260904232510 | 31 | 279 | 0.0 | 4.8 | 0.00 | 0.05 | 0.03 | 72 | 1015.5 |
| 20260904232015 | 31 | 306 | 0.0 | 4.8 | 0.00 | 0.05 | 0.03 | 71 | 1015.6 |
| 20260904231513 | 31 | 314 | 0.0 | 4.8 | 0.00 | 0.05 | 0.03 | 71 | 1015.6 |
| 20260904231005 | 31 | 239 | 0.0 | 4.8 | 0.00 | 0.05 | 0.03 | 70 | 1015.6 |
| 20260904230505 | 31 | 241 | 0.0 | 6.4 | 0.00 | 0.05 | 0.03 | 70 | 1015.5 |
| 20260904230025 | 32 | 281 | 0.0 | 6.4 | 0.00 | 0.05 | 0.03 | 69 | 1015.3 |
| 20260904225508 | 32 | 267 | 0.0 | 4.8 | 0.00 | 0.05 | 0.03 | 70 | 1015.3 |
| 20260904225006 | 32 | 259 | 0.0 | 1.6 | 0.00 | 0.08 | 0.03 | 69 | 1015.2 |
| 20260904224519 | 32 | 275 | 0.0 | 3.2 | 0.00 | 0.08 | 0.03 | 68 | 1015.2 |
| 20260904224007 | 33 | 281 | 0.0 | 3.2 | 0.00 | 0.10 | 0.03 | 67 | 1015.1 |
| 20260904223509 | 33 | 222 | 0.0 | 6.4 | 0.00 | 0.10 | 0.03 | 67 | 1015.2 |
| 20260904223031 | 33 | 219 | 1.6 | 11.3 | 0.00 | 0.10 | 0.03 | 66 | 1015.2 |
| 20260904222503 | 34 | 232 | 0.0 | 11.3 | 0.00 | 0.10 | 0.03 | 66 | 1015.1 |
| 20260904222008 | 34 | 247 | 0.0 | 6.4 | 0.00 | 0.10 | 0.03 | 66 | 1015.0 |
| 20260904221527 | 34 | 239 | 0.0 | 6.4 | 0.00 | 0.10 | 0.03 | 65 | 1014.8 |
| 20260904221015 | 34 | 221 | 0.0 | 8.0 | 0.00 | 0.10 | 0.03 | 64 | 1014.5 |
| 20260904220504 | 34 | 235 | 3.2 | 11.3 | 0.00 | 0.10 | 0.03 | 66 | 1014.3 |
| 20260904220011 | 34 | 184 | 1.6 | 11.3 | 0.00 | 0.10 | 0.03 | 66 | 1014.3 |
| 20260904215506 | 34 | 240 | 1.6 | 8.0 | 0.00 | 0.30 | 0.03 | 67 | 1014.3 |
| 20260904215003 | 33 | 194 | 0.0 | 9.7 | 0.00 | 0.86 | 0.03 | 68 | 1014.3 |
| 20260904214516 | 33 | 242 | 1.6 | 14.5 | 0.00 | 1.12 | 0.03 | 67 | 1014.6 |
| 20260904214009 | 33 | 263 | 6.4 | 16.1 | 0.00 | 1.52 | 0.03 | 66 | 1014.8 |
| 20260904213512 | 33 | 227 | 6.4 | 16.1 | 0.00 | 1.85 | 0.03 | 66 | 1014.9 |
| 20260904213019 | 34 | 175 | 3.2 | 16.1 | 0.00 | 2.31 | 0.03 | 67 | 1015.0 |
| 20260904212509 | 34 | 223 | 1.6 | 16.1 | 0.00 | 2.87 | 0.03 | 66 | 1014.9 |
| 20260904212010 | 34 | 223 | 8.0 | 16.1 | 0.00 | 3.66 | 0.03 | 66 | 1014.9 |
| 20260904211529 | 34 | 209 | 6.4 | 14.5 | 0.00 | 4.19 | 0.03 | 66 | 1015.0 |
| 20260904211006 | 34 | 206 | 4.8 | 12.9 | 0.00 | 4.22 | 0.03 | 68 | 1015.0 |
| 20260904210510 | 33 | 242 | 4.8 | 12.9 | 0.00 | 4.22 | 0.03 | 68 | 1015.0 |
| 20260904210033 | 33 | 248 | 3.2 | 14.5 | 0.00 | 4.22 | 0.03 | 70 | 1015.1 |
| 20260904205509 | 33 | 227 | 8.0 | 14.5 | 0.00 | 4.22 | 0.03 | 71 | 1014.9 |
| 20260904205004 | 32 | 238 | 1.6 | 16.1 | 0.00 | 4.22 | 0.03 | 73 | 1014.7 |
| 20260904204515 | 32 | 246 | 6.4 | 16.1 | 0.00 | 4.22 | 0.03 | 73 | 1014.7 |
| 20260904204008 | 32 | 233 | 3.2 | 17.7 | 0.00 | 4.22 | 0.03 | 73 | 1014.8 |
| 20260904203508 | 31 | 236 | 6.4 | 17.7 | 0.00 | 4.22 | 0.03 | 71 | 1014.9 |
| 20260904203019 | 31 | 204 | 3.2 | 11.3 | 0.00 | 4.22 | 0.03 | 72 | 1014.9 |
| 20260904202510 | 30 | 201 | 3.2 | 11.3 | 0.00 | 4.22 | 0.03 | 72 | 1014.8 |
| 20260904202006 | 30 | 212 | 3.2 | 12.9 | 0.00 | 4.22 | 0.03 | 73 | 1014.9 |
| 20260904201524 | 30 | 236 | 1.6 | 14.5 | 0.00 | 4.22 | 0.03 | 72 | 1014.8 |
| 20260904201014 | 30 | 226 | 3.2 | 14.5 | 0.00 | 4.22 | 0.03 | 72 | 1014.7 |
| 20260904200513 | 30 | 223 | 1.6 | 16.1 | 0.00 | 4.22 | 0.03 | 72 | 1014.7 |
| 20260904200038 | 30 | 234 | 6.4 | 16.1 | 0.00 | 4.22 | 0.03 | 70 | 1014.8 |
| 20260904195510 | 31 | 230 | 9.7 | 16.1 | 0.00 | 4.22 | 0.03 | 71 | 1014.9 |
| 20260904195016 | 31 | 228 | 6.4 | 16.1 | 0.00 | 4.22 | 0.03 | 73 | 1015.1 |
| 20260904194514 | 31 | 248 | 8.0 | 17.7 | 0.00 | 4.22 | 0.03 | 73 | 1015.1 |
| 20260904194010 | 32 | 223 | 4.8 | 17.7 | 0.00 | 4.22 | 0.03 | 72 | 1015.1 |
| 20260904193507 | 32 | 236 | 6.4 | 22.5 | 0.00 | 4.22 | 0.03 | 70 | 1015.1 |
| 20260904193020 | 33 | 253 | 12.9 | 27.4 | 0.00 | 4.22 | 0.03 | 68 | 1015.3 |
| 20260904192510 | 34 | 251 | 12.9 | 33.8 | 0.00 | 4.22 | 0.03 | 69 | 1015.2 |
| 20260904192010 | 35 | 214 | 22.5 | 33.8 | 0.00 | 4.22 | 0.03 | 69 | 1015.2 |
| 20260904191523 | 35 | 239 | 3.2 | 16.1 | 0.00 | 4.22 | 0.03 | 70 | 1015.2 |